sat.trackr.live / text

‹ back to catalog

STARLINK-35943

NORAD 66927 · 2025-286C

PAYLOAD ACTIVE UNKNOWN

§ Identity

Operator
Country
US
Launch date
2025-12-07
Launch site
AFWTR
Launch vehicle
Mass (kg)
RCS (m²)

Purposes: comms

External: N2YO · Heavens-Above · Gunter

§ Orbital elements

Epoch: 2026-05-25T00:44:11.330880Z

Period
93.85 min
Inclination
53.1596°
Eccentricity
0.0001060
Mean motion
15.34405858 rev/d
Perigee alt
462.0 km
Apogee alt
463.4 km
Semi-major
6,840.8 km
B*
7.2384e-4
RAAN
3.2384°
Arg perigee
96.2253°
Mean anomaly
263.8870°
Rev number
2,711

§ Raw data

STARLINK-359431 66927U 25286C   26145.03068670  .00024163  00000+0  72384-3 0  99932 66927  53.1596   3.2384 0001060  96.2253 263.8870 15.34405858 27113

JSON: /api/v1/satellites/66927 · /tle

For live sub-satellite position, see the globe view (requires WebGL).

§ Visibility from observer

Set your observer location to see the next 7 days of passes ≥ 10°. The values pass through the URL so the page stays shareable.

No JS? Fill the form by hand. The geolocation button needs JavaScript.